Kivalina, AK

9:11 PM AKDT on April 28, 2017 (GMT -0800)
Kivalina

Weather History for PAVL - March, 2013

Change the Weather History Date:

Tuesday, March 12, 2013

  Actual Average (PAWN) Record (PAWN)
Temperature  
Mean Temperature -7 °F -  
Max Temperature 6 °F 10 °F 28 °F (2005)
Min Temperature -17 °F -2 °F -36 °F (1999)
Degree Days  
Heating Degree Days 72    
Moisture  
Dew Point -12 °F    
Average Humidity 82    
Maximum Humidity 88    
Minimum Humidity 78    
Precipitation  
Precipitation 0.00 in - - ()
Sea Level Pressure  
Sea Level Pressure 30.64 in    
Wind  
Wind Speed 5 mph (East)    
Max Wind Speed 7 mph    
Max Gust Speed -    
Visibility 10 miles    
Events      
Averages and records for this station are not official NWS values.
T = Trace of Precipitation, MM = Missing Value Source: NWS Daily Summary

Daily Weather History Graph

Daily Weather History Graph

Search for Another Location

Airport or City:

Trip Planner

Search our weather history database for the weather conditions in past years. The results will help you decide how hot, cold, wet, or windy it might be!

Date:

Astronomy

Mar. 12, 2013 Rise Set
Actual Time 9:28 AM AKDT 8:48 PM AKDT
Civil Twilight 8:34 AM AKDT 9:43 PM AKDT
Nautical Twilight 7:29 AM AKDT 10:49 PM AKDT
Astronomical Twilight 6:15 AM AKDT 12:04 AM AKDT
Moon 8:57 AM AKDT (3/12) 11:19 PM AKDT (3/12)
Length of Visible Light 13h 08m
Length of Day
11h 19m
New Moon, 1% of the Moon is Illuminated
Mar 12
New Moon
Mar 19
First Quarter
Mar 27
Full
Apr 2
Last Quarter
Apr 10
New

Hourly Weather History & Observations

Time (AKDT) Temp. Windchill Dew Point Humidity Pressure Visibility Wind Dir Wind Speed Gust Speed Precip Events Conditions
12:53 AM -16.1 °F -32.3 °F -20.9 °F 79% 30.74 in 10.0 mi East 6.9 mph - N/A   Clear
1:53 AM -16.1 °F -30.6 °F -20.9 °F 79% 30.75 in 10.0 mi ENE 5.8 mph - N/A   Clear
2:53 AM -17.0 °F -33.4 °F -22.0 °F 78% 30.74 in 10.0 mi ENE 6.9 mph - N/A   Clear
3:53 AM -17.0 °F -31.7 °F -20.9 °F 82% 30.74 in 10.0 mi ENE 5.8 mph - N/A   Clear
4:53 AM -17.0 °F - -22.0 °F 78% 30.73 in 10.0 mi North - - N/A   Clear
5:53 AM -17.0 °F -33.4 °F -20.9 °F 82% 30.71 in 10.0 mi East 6.9 mph - N/A   Clear
6:53 AM -16.1 °F -32.3 °F -20.0 °F 82% 30.69 in 10.0 mi East 6.9 mph - N/A   Clear
7:53 AM -16.1 °F -30.6 °F -20.9 °F 79% 30.69 in 10.0 mi ENE 5.8 mph - N/A   Clear
8:53 AM -16.1 °F -30.6 °F -20.0 °F 82% 30.69 in 10.0 mi NE 5.8 mph - N/A   Clear
9:53 AM -15.0 °F -31.0 °F -18.9 °F 82% 30.66 in 10.0 mi East 6.9 mph - N/A   Clear
10:53 AM -14.1 °F -28.3 °F -18.0 °F 82% 30.66 in 10.0 mi ENE 5.8 mph - N/A   Clear
11:53 AM -11.0 °F -26.2 °F -15.0 °F 83% 30.65 in 10.0 mi East 6.9 mph - N/A   Clear
12:53 PM -7.1 °F -18.1 °F -11.0 °F 83% 30.65 in 10.0 mi East 4.6 mph - N/A   Clear
1:53 PM -5.1 °F -15.8 °F -8.0 °F 87% 30.65 in 10.0 mi East 4.6 mph - N/A   Mostly Cloudy
2:53 PM -2.0 °F -13.9 °F -6.0 °F 83% 30.63 in 10.0 mi ESE 5.8 mph - N/A   Partly Cloudy
3:53 PM -0.0 °F -9.9 °F -4.0 °F 83% 30.61 in 10.0 mi East 4.6 mph - N/A   Mostly Cloudy
4:53 PM 1.9 °F -7.6 °F -2.0 °F 83% 30.59 in 10.0 mi East 4.6 mph - N/A   Overcast
5:53 PM 1.9 °F - -2.0 °F 83% 30.57 in 10.0 mi Calm Calm - N/A   Mostly Cloudy
6:53 PM 3.0 °F -4.4 °F -2.0 °F 80% 30.55 in 10.0 mi ESE 3.5 mph - N/A   Overcast
7:53 PM 3.0 °F -6.4 °F -2.0 °F 80% 30.53 in 10.0 mi ESE 4.6 mph - N/A   Overcast
8:53 PM 1.9 °F - -0.9 °F 88% 30.52 in 10.0 mi Calm Calm - N/A   Mostly Cloudy
9:53 PM 3.9 °F - -0.0 °F 84% 30.52 in 10.0 mi Calm Calm - N/A   Overcast
10:53 PM 3.9 °F -3.4 °F -0.0 °F 84% 30.51 in 10.0 mi ENE 3.5 mph - N/A   Overcast
11:53 PM 5.0 °F - 1.0 °F 84% 30.49 in 10.0 mi Calm Calm - N/A   Overcast